This is the latest recevied weather packets stored in our database for station/object WX1NWA. If no packets are shown the sender has not sent any weather packets the latest 10 day(s).
| Time | Temp. | Humidity | Pressure | Rain* | Wind** | Luminosity | Snow |
|---|---|---|---|---|---|---|---|
| 1777969536 | 14.44° C | 97% | 1008.8 hPa | 6.1 mm | - | 0 W/m² | - |
| 1777969233 | 14.44° C | 97% | 1008.7 hPa | 7.87 mm | - | 0 W/m² | - |
| 1777968930 | 14.44° C | 96% | 1009.2 hPa | 4.32 mm | - | 0 W/m² | - |
| 1777968627 | 14.44° C | 95% | 1009 hPa | 3.05 mm | - | 0 W/m² | - |
| 1777968323 | 15° C | 94% | 1009.3 hPa | 3.05 mm | - | 0 W/m² | - |
| 1777968020 | 15° C | 93% | 1009.3 hPa | 4.83 mm | - | 0 W/m² | - |
| 1777967716 | 15.56° C | 91% | 1008.6 hPa | 1.78 mm | - | 0 W/m² | - |
| 1777967413 | 16.11° C | 86% | 1008.6 hPa | 0 mm | - | 0 W/m² | - |
| 1777967110 | 15.56° C | 85% | 1008.2 hPa | 0 mm | - | 0 W/m² | - |
| 1777966807 | 16.11° C | 83% | 1008.2 hPa | 0 mm | - | 0 W/m² | - |
| 1777966504 | 16.67° C | 80% | 1008.4 hPa | 0 mm | - | 0 W/m² | - |
| 1777966202 | 16.67° C | 76% | 1008.6 hPa | 0 mm | - | 0 W/m² | - |
| 1777965898 | 17.22° C | 76% | 1008.7 hPa | 0 mm | - | 0 W/m² | - |
| 1777965594 | 17.22° C | 76% | 1008.5 hPa | 0 mm | - | 0 W/m² | - |
| 1777965290 | 17.22° C | 76% | 1008.7 hPa | 0 mm | - | 0 W/m² | - |
| 1777964988 | 17.22° C | 76% | 1008.9 hPa | 0 mm | - | 0 W/m² | - |
| 1777964685 | 17.22° C | 76% | 1009 hPa | 0 mm | - | 0 W/m² | - |
| 1777964380 | 17.22° C | 76% | 1009.3 hPa | 0 mm | - | 0 W/m² | - |
| 1777964077 | 17.22° C | 76% | 1009.2 hPa | 0 mm | - | 0 W/m² | - |
| 1777963774 | 17.22° C | 76% | 1009.2 hPa | 0 mm | - | 0 W/m² | - |
| 1777963471 | 17.22° C | 76% | 1009.5 hPa | 0 mm | - | 0 W/m² | - |
| 1777963169 | 17.22° C | 76% | 1009.6 hPa | 0 mm | - | 0 W/m² | - |
| 1777962865 | 17.22° C | 76% | 1009.8 hPa | 0 mm | - | 0 W/m² | - |
| 1777962562 | 17.22° C | 76% | 1010 hPa | 0 mm | - | 0 W/m² | - |
| 1777962259 | 17.22° C | 76% | 1010 hPa | 0 mm | - | 0 W/m² | - |
* Rain latest hour (hover to see other rain measurements)
** Current wind speed in m/s (hover to see current wind gust speed)